Regional Weather Roundup
Issued by NWS Cleveland, OH

Home | Current Version | Previous Version | Text Only | Print | Product List | Glossary Off
Versions: 1 2 3 4 5 6 7 8 9 10 11 12 13 14 15 16 17 18 19 20 21 22 23 24 25 26 27 28 29 30 31 32 33 34 35 36 37 38 39 40 41 42 43 44 45 46 47 48 49 50

000
ASUS41 KCLE 301710
RWRCLE
OHIO REGIONAL WEATHER ROUNDUP
NATIONAL WEATHER SERVICE CLEVELAND, OH
100 PM EDT THU JUL 30 2015

NOTE: "FAIR" INDICATES FEW OR NO CLOUDS BELOW 12,000 FEET WITH NO
SIGNIFICANT WEATHER AND/OR OBSTRUCTIONS TO VISIBILITY.

OHZ001>008-015>018-024>027-034-035-043-044-301800-
   NORTHWEST OHIO

CITY           SKY/WX    TMP DP  RH WIND       PRES   REMARKS
DEFIANCE       SUNNY     84  55  36 NW13G22   30.03S
FINDLAY        SUNNY     83  57  41 NW13      30.02S
TOLEDO EXPRESS MOSUNNY   81  58  45 W17       30.00F
TOLEDO EXEC    SUNNY     84  56  38 W13       30.01S
LIMA           SUNNY     81  57  43 W13G20    30.05S
$$

OHZ009>014-019>023-028>033-038-089-301800-
   NORTHEAST OHIO

CITY           SKY/WX    TMP DP  RH WIND       PRES   REMARKS
CLE-HOPKINS    MOSUNNY   83  56  39 NW16      30.01S
CLE-LAKEFRONT  SUNNY     80  67  64 W15       29.98S
CUY CO. ARPT   MOSUNNY   81  63  54 W14       30.00S
LORAIN-ELYRIA  SUNNY     81  57  43 NW10      30.01S
ASHTABULA      MOSUNNY   80  55  42 NW14      29.98S
AKRON-CANTON   MOSUNNY   83  57  41 W13       30.01S
WOOSTER        MOSUNNY   80  60  50 NW10      30.03S
MANSFIELD      MOSUNNY   81  59  47 NW7       30.04S
YOUNGSTOWN     PTSUNNY   81  58  45 W9        29.99S
$$

OHZ042-051>053-060>062-070>072-077>081-301800-
  SOUTHWEST OHIO

CITY           SKY/WX    TMP DP  RH WIND       PRES   REMARKS
CINC-COVINGTON MOSUNNY   82  58  43 NW9       30.09F
CINC-LUNKEN    SUNNY     83  61  47 W9        30.07F
HAMILTON       SUNNY     84  59  42 VRB7      30.08F
DAYTON         MOSUNNY   80  58  46 NW9       30.09S
WRIGHT-PAT AFB MOSUNNY   80  58  46 NW10      30.07S
DAYTON GENERAL SUNNY     81  58  45 N9        30.08S
WILMINGTON     SUNNY     81  58  45 NW9       30.08S
$$

OHZ036-037-039>041-045>050-054>059-063>069-073>076-082>088-301800-
  CENTRAL AND SOUTHEAST OHIO

CITY           SKY/WX    TMP DP  RH WIND       PRES   REMARKS
COLUMBUS       MOSUNNY   82  57  42 W8        30.03F
OSU AIRPORT    SUNNY     82  60  47 W12G18    30.04F
BOLTON FIELD   SUNNY     81  61  50 W7        30.06S
RICKENBACK AFB SUNNY     81  60  48 NW13      30.04S
NEWARK         SUNNY     84  58  40 W9        30.03S
MARION         SUNNY     81  56  42 N8        30.04F
LANCASTER      SUNNY     82  60  47 W9G17     30.05S
ZANESVILLE     SUNNY     82  55  39 NW7       30.03S
NEW PHILLY     SUNNY     81  60  48 NW7       30.02S
$$



USA.gov is the U.S. government's official web portal to all federal, state and local government web resources and services.